Retour au catalogue

FENGYUN 1C DEB

ActifPO
NORAD 32119·DEBRIS·🇨🇳 China

Lancé May 10, 1999 depuis Taiyuan Satellite Launch Center

Loading…

Prochains Passages (prochaines 24 heures)

TLE

VieillissantSource: Space-Track

Époque: Sep 9, 2026, 10:19 UTC

1 32119U 99025CRM 26252.43038752  .00000749  00000-0  49497-3 0  9996
2 32119  99.8606 142.8155 0086520  41.8441 318.9294 14.03395187975249

Suivez FENGYUN 1C DEB en temps réel avec AllMySat

Download on the App Store